Weather History for OAMS - December, 2012

Change the Weather History Date:

Wednesday, December 12, 2012

  Actual Average Record
Temperature  
Mean Temperature 52 °F -  
Max Temperature 59 °F 49 °F - ()
Min Temperature 44 °F 30 °F - ()
Degree Days  
Heating Degree Days 14    
Growing Degree Days 2 (Base 50)    
Moisture  
Dew Point 45 °F    
Average Humidity 81    
Maximum Humidity 93    
Minimum Humidity 63    
Precipitation  
Precipitation 0.00 in 0.03 in - ()
Sea Level Pressure  
Sea Level Pressure 29.93 in    
Wind  
Wind Speed 3 mph ()    
Max Wind Speed 15 mph    
Max Gust Speed -    
Visibility 5.0 miles    
Events      
T = Trace of Precipitation, MM = Missing Value Source: Averaged Metar Reports

Daily Weather History Graph

Daily Weather History Graph

Search for Another Location

Airport or City:

Trip Planner

Search our weather history database for the weather conditions in past years. The results will help you decide how hot, cold, wet, or windy it might be!

Date:

Astronomy

Dec. 12, 2012 Rise Set
Actual Time 7:04 AM AFT 4:45 PM AFT
Civil Twilight 6:35 AM AFT 5:14 PM AFT
Nautical Twilight 6:03 AM AFT 5:46 PM AFT
Astronomical Twilight 5:31 AM AFT 6:18 PM AFT
Moon 5:39 AM AFT (12/12) 3:55 PM AFT (12/12)
Length of Visible Light 10h 38m
Length of Day
9h 41m
Waning Crescent, 2% of the Moon is Illuminated
Dec 12
Waning Crescent
Dec 13
New
Dec 20
First Quarter
Dec 28
Full
Jan 5
Last Quarter

Hourly Weather History & Observations

Time (AFT) Temp. Windchill Dew Point Humidity Pressure Visibility Wind Dir Wind Speed Gust Speed Precip Events Conditions
12:20 AM 50.0 °F - 42.8 °F 76% 29.98 in 5.6 mi Calm Calm - N/A   Mostly Cloudy
1:20 AM 46.4 °F 45.2 °F 42.8 °F 87% 29.98 in 5.6 mi North 3.5 mph - N/A   Mostly Cloudy
3:20 AM 48.2 °F - 44.6 °F 87% 29.98 in 5.6 mi Calm Calm - N/A   Mostly Cloudy
4:20 AM 46.4 °F - 42.8 °F 87% 29.95 in 5.6 mi Variable 1.2 mph - N/A   Mostly Cloudy
5:20 AM 46.4 °F 44.3 °F 44.6 °F 93% 29.95 in 5.6 mi West 4.6 mph - N/A   Mostly Cloudy
6:20 AM 44.6 °F 42.2 °F 42.8 °F 93% 29.95 in 5.0 mi ENE 4.6 mph - N/A   Mostly Cloudy
6:59 AM 46.4 °F 43.5 °F 42.8 °F 87% 29.95 in 3.7 mi ESE 5.8 mph - N/A   Mostly Cloudy
7:20 AM 46.4 °F - 42.8 °F 87% 29.95 in 3.7 mi SE 2.3 mph - N/A   Scattered Clouds
8:04 AM 44.6 °F - 42.8 °F 93% 29.95 in 2.5 mi NE 2.3 mph - N/A   Scattered Clouds
8:20 AM 44.6 °F 43.1 °F 42.8 °F 93% 29.95 in 2.5 mi NNE 3.5 mph - N/A   Scattered Clouds
8:25 AM 46.4 °F - 42.8 °F 87% 29.95 in 1.6 mi Variable 1.2 mph - N/A   Scattered Clouds
9:20 AM 48.2 °F - 44.6 °F 87% 29.95 in 1.9 mi North 1.2 mph - N/A   Scattered Clouds
9:42 AM 51.8 °F - 44.6 °F 76% 29.95 in 2.5 mi Calm Calm - N/A   Haze
10:20 AM 51.8 °F - 44.6 °F 76% 29.95 in 3.1 mi Calm Calm - N/A   Haze
11:20 AM 57.2 °F - 44.6 °F 63% 29.92 in 6.2 mi NE 3.5 mph - N/A   Scattered Clouds
12:20 PM 57.2 °F - 44.6 °F 63% 29.92 in 6.2 mi East 6.9 mph - N/A   Partly Cloudy
1:20 PM 59.0 °F - 46.4 °F 63% 29.89 in 6.2 mi East 10.4 mph - N/A   Partly Cloudy
2:20 PM 57.2 °F - 46.4 °F 67% 29.86 in 6.2 mi ENE 15.0 mph - N/A   Scattered Clouds
3:20 PM 57.2 °F - 46.4 °F 67% 29.86 in 6.2 mi East 11.5 mph - N/A   Scattered Clouds
4:20 PM 55.4 °F - 46.4 °F 72% 29.86 in 6.2 mi ENE 12.7 mph - N/A   Scattered Clouds
5:20 PM 53.6 °F - 46.4 °F 77% 29.86 in 6.2 mi ENE 9.2 mph - N/A   Scattered Clouds
6:20 PM 51.8 °F - 46.4 °F 82% 29.89 in 6.2 mi West 4.6 mph - N/A   Scattered Clouds
7:20 PM 51.8 °F - 46.4 °F 82% 29.89 in 6.2 mi SW 2.3 mph - N/A   Mostly Cloudy
8:20 PM 50.0 °F - 46.4 °F 87% 29.89 in 6.2 mi West 5.8 mph - N/A   Mostly Cloudy
9:20 PM 50.0 °F - 46.4 °F 87% 29.92 in 6.2 mi West 3.5 mph - N/A   Mostly Cloudy
10:20 PM 51.8 °F - 46.4 °F 82% 29.92 in 6.2 mi West 3.5 mph - N/A   Mostly Cloudy
11:20 PM 51.8 °F - 46.4 °F 82% 29.95 in 6.2 mi WSW 9.2 mph - N/A   Mostly Cloudy